#timestamp,LO_Frequency,Hit,StdDev 
1501354815.8,286046999.8,N,2.5
1501354835.7,286047000.1,N,2.7
1501354855.5,286046999.7,N,2.7
1501354875.3,286047002.7,N,2.5
1501354895.2,286047002.4,N,2.4
1501354915.0,286046999.7,N,2.4
1501354915.9,286046999.7,N,2.4
1501354935.8,286047002.4,N,2.3
1501354955.6,286047002.3,N,2.2
1501354975.4,286047000.2,N,2.1
1501354995.3,286047000.1,N,2.1
1501355015.1,286046999.7,N,2.1
1501355035.9,286047000.0,N,2.1
1501355055.7,286047000.5,N,2.0
1501355075.5,286047002.5,N,2.0
1501355095.4,286047000.0,N,2.0
1501355115.2,286047001.2,N,1.9
1501355135.1,286047000.7,N,1.9
1501355136.0,286047000.7,N,1.8
1501355155.8,286046996.5,N,2.0
1501355175.6,286046999.0,N,2.0
1501355195.5,286047000.9,N,2.0
1501355215.3,286047000.4,N,2.0
1501355235.2,286046999.8,N,1.9
1501355255.9,286047001.6,N,1.9
1501355275.7,286047002.5,N,1.9
1501355295.6,286047002.5,N,1.9
1501355315.4,286047002.5,N,1.9
1501355335.2,286047000.2,N,1.6
1501355355.1,286047001.0,N,1.4
1501355356.0,286047001.0,N,1.3
1501355375.8,286047001.0,N,1.3
1501355395.7,286047000.5,N,1.3
1501355415.5,286047002.8,N,1.3
1501355435.3,286047000.1,N,1.3
1501355455.2,286047000.5,N,1.3
1501355475.0,286047000.1,N,1.3
1501355475.9,286047000.1,N,1.2
1501355495.8,286046999.9,N,1.2
1501355515.6,286047002.8,N,1.3
1501355535.4,286047002.5,N,1.3
1501355555.3,286047002.7,N,1.3
1501355575.1,286047001.9,N,1.3
1501355595.9,286047002.3,N,1.4
1501355615.7,286047000.2,N,1.3
1501355635.5,286046999.8,N,1.3
1501355655.4,286047002.5,N,1.4
1501355675.2,286047002.2,N,1.4
1501355695.0,286047001.4,N,1.4
1501355695.9,286047001.4,N,1.1
1501355715.8,286047001.9,N,1.0
1501355735.6,286047001.9,N,1.0
1501355755.5,286047002.8,N,1.1
1501355775.3,286047002.7,N,1.0
1501355795.1,286047002.3,N,1.0
1501355815.9,286047002.4,N,1.0
1501355835.7,286047002.6,N,1.0
1501355855.6,286047001.9,N,1.0
1501355875.4,286047001.5,N,1.0
1501355895.2,286047001.3,N,1.0
1501355915.1,286047003.1,P,0.8
1501355916.0,286047003.1,P,0.7
1501355935.8,286047002.5,P,0.6
1501355955.7,286046999.8,N,1.2
1501355975.5,286047000.5,N,1.3
1501355995.3,286047000.2,N,1.3
1501356015.2,286046999.8,N,1.3
1501356035.0,286047000.1,N,1.3
1501356035.9,286047000.1,N,1.3
1501356055.8,286047000.6,N,1.2
1501356075.6,286047000.8,N,1.2
1501356095.4,286046999.9,N,1.2
1501356115.3,286047000.4,N,1.1
1501356135.1,286047002.6,N,1.2
1501356155.9,286047000.2,N,1.2
1501356175.7,286047000.1,N,1.1
1501356195.5,286047001.0,N,1.1
1501356215.4,286047000.1,N,1.1
1501356235.2,286046999.8,N,1.1
1501356255.0,286046999.9,N,1.1
1501356256.0,286046999.9,P,0.4
1501356275.8,286047000.4,N,0.4
1501356295.6,286047000.9,N,0.4
1501356315.5,286047002.0,P,0.8
1501356335.3,286046999.8,N,0.9
1501356355.2,286047000.6,N,0.8
1501356375.9,286047000.3,N,0.7
1501356395.7,286047000.5,N,0.7
1501356415.6,286047000.4,N,0.6
1501356435.4,286047000.9,N,0.6
1501356455.3,286047000.8,N,0.6
1501356475.1,286047000.9,N,0.5
1501356476.0,286047000.9,N,0.5
1501356495.8,286047000.6,N,0.5
1501356515.7,286047002.8,P,1.1
1501356535.5,286046998.5,N,1.8
1501356555.4,286047001.0,N,1.5
1501356575.2,286047000.7,N,1.4
1501356595.0,286047000.6,N,1.2
1501356595.9,286047000.6,N,1.2
1501356615.8,286047000.7,N,1.1
1501356635.6,286047001.0,N,1.0
1501356655.5,286047000.3,N,1.0
1501356675.3,286047000.1,N,0.9
1501356695.1,286047000.2,N,0.9
1501356715.9,286047001.0,N,0.9
1501356735.7,286047000.0,N,0.9
1501356755.6,286046999.7,N,0.9
1501356775.4,286047002.2,N,0.9
1501356795.2,286047001.7,N,0.9
1501356815.1,286047001.5,N,0.9
1501356816.0,286047001.5,N,0.9
1501356835.8,286047001.6,N,0.9
1501356855.7,286047001.5,N,0.9
1501356875.5,286047001.3,N,0.9
1501356895.3,286047001.3,N,0.9
1501356915.2,286047003.8,P,1.5
1501356935.0,286047001.6,N,1.2
1501356935.9,286047001.6,N,1.1
1501356955.8,286047002.2,N,1.0
1501356975.6,286047000.0,N,1.2
1501356995.5,286047000.6,N,1.1
1501357015.3,286047000.3,N,1.1
1501357035.1,286047000.0,N,1.2
1501357055.9,286047001.2,N,1.1
1501357075.7,286047000.0,N,1.1
1501357095.6,286047000.4,N,1.1
1501357115.4,286047001.2,N,1.0
1501357135.2,286046998.4,N,1.2
1501357155.1,286047001.2,N,1.2
1501357156.0,286047001.2,N,1.1
1501357175.8,286047001.0,N,1.1
1501357195.7,286046998.2,N,1.2
1501357215.5,286046999.1,N,1.3
1501357235.3,286046998.3,N,1.3
1501357255.2,286046998.5,N,1.4
1501357275.0,286046996.5,N,1.6
1501357275.9,286046996.5,N,1.7
1501357295.7,286046999.1,N,1.7
1501357315.6,286046998.8,N,1.7
1501357335.4,286046996.6,N,1.8
1501357355.3,286046997.0,N,1.8
1501357375.1,286046996.8,N,1.9
1501357395.8,286046996.8,N,1.9
1501357415.7,286046996.9,N,1.9
1501357435.5,286046997.9,N,2.0
1501357455.4,286046997.4,N,1.8
1501357475.2,286046994.9,N,1.9
1501357495.0,286046996.2,N,1.9
1501357495.9,286046996.2,N,1.8
1501357515.8,286046993.7,P,2.4
1501357535.6,286046995.3,N,2.0
1501357555.5,286046997.9,N,2.0
1501357575.3,286046997.6,N,1.8
1501357595.1,286046998.0,N,1.7
1501357615.9,286046995.0,N,1.7
1501357635.7,286046997.1,N,1.6
1501357655.6,286046997.4,N,1.6
1501357675.4,286046997.5,N,1.5
1501357695.2,286046993.3,P,1.8
1501357715.1,286046999.0,N,2.3
1501357716.0,286046999.0,N,2.3
1501357735.8,286046999.2,N,2.3
1501357755.7,286046997.0,N,2.1
1501357775.5,286046996.7,N,1.9
1501357795.3,286046999.2,N,1.9
1501357815.2,286046999.6,N,1.9
1501357835.0,286046999.6,N,1.9
1501357835.9,286046999.6,N,1.9
1501357855.8,286046996.9,N,1.8
1501357875.6,286046999.2,N,1.8
1501357895.4,286046998.6,N,1.7
1501357915.3,286046999.4,N,1.7
1501357935.1,286046998.7,N,1.6
1501357955.9,286046996.6,N,1.6
1501357975.7,286046997.0,N,1.6
1501357995.5,286046997.0,N,1.6
1501358015.4,286046996.8,N,1.6
1501358035.2,286046996.9,N,1.6
1501358055.0,286046999.2,N,1.5
1501358056.0,286046999.2,N,1.5
1501358075.8,286046996.8,N,1.5
1501358095.6,286046997.4,N,1.5
1501358115.5,286046998.8,N,1.5
1501358135.3,286046999.1,N,1.5
1501358155.1,286046999.6,N,1.5
1501358175.9,286046999.5,N,1.5
1501358195.7,286046999.5,N,1.5
1501358215.6,286046996.6,N,1.5
1501358235.4,286046996.6,N,1.2
1501358255.2,286046996.5,N,1.2
1501358275.1,286046996.5,N,1.3
1501358276.0,286046996.5,N,1.3
1501358295.8,286046999.2,N,1.3
1501358315.7,286046999.4,N,1.3
1501358335.5,286046999.4,N,1.3
1501358355.3,286046997.3,N,1.3
1501358375.2,286046996.5,N,1.3
1501358395.0,286046999.1,N,1.2
1501358395.9,286046999.1,N,1.2
